Location: Bay Harbour
(38.2612°N, 75.2555°W)
Time: 16:34:57
(UTC+00:00)

Cosmos 1745 Rocket - Pass Details

Date: 29 October 2020
Orbit: 953 x 997 km, 83.0° (Epoch: 23 November)

Event Time Altitude Azimuth Distance (km) Brightness Sun altitude
Rises 23:23:25 0° 355° (N) 3,696 7.0 -16.0°
Reaches altitude 10° 23:25:57 10° 357° (N) 2,750 6.3 -16.5°
Maximum altitude 23:32:16 75° 82° (E) 1,029 3.9 -17.8°
Drops below altitude 10° 23:38:35 10° 168° (SSE) 2,753 6.3 -19.0°
Sets 23:41:07 0° 170° (S) 3,700 7.0 -19.5°
